SATELIOT_1

Last updated on Mon Sep 16 2024 00:02:04 GMT+0000 (Coordinated Universal Time)

1 60550U 24149CL 24258.91613012 .00006268 00000+0 60356-3 0 9994 2 60550 97.7389 333.9341 0008669 62.3560 297.8539 14.93275112 4336
UTC large
Height (km)
Speed (km/s)
/
Latitude / Longitude
Inclination (degrees)
Orbital Period (minutes)
Azimuth
Elevation
Range (km)
Doppler Factor

Next 0 passes for location: London (51.5072 / 0.1276)

Sorry there are no passes over London.